Location: Unspecified
(0.0000°N, 0.0000°E)
Time: 14:00:17

Vanguard 2 Rocket - Pass Details

Date: 10 December 2017
Orbit: 554 x 3327 km, 32.9° (Epoch: 22 March)

Event Time Altitude Azimuth Distance (km) Brightness Sun altitude
Rises 00:39:01 0° 316° (NW) 7,209 - -64.5°
Reaches altitude 10° 00:45:36 10° 328° (NNW) 6,278 - -63.7°
Maximum altitude 01:00:43 25° 17° (NNE) 4,762 - -61.7°
Exits shadow 01:10:40 15° 59° (ENE) 4,925 10.6 -60.3°
Drops below altitude 10° 01:13:03 10° 67° (ENE) 5,149 10.7 -59.9°
Sets 01:17:35 0° 79° (E) 5,746 11.2 -59.2°
